www.pogodaiklimat.ru

Погода и климат >> Архив погоды >> Греция >> Самос


ПОГОДА на Самосе

  • Прогноз погоды на Самосе
  • Монитор погоды на Самосе

АРХИВ ПОГОДЫ на Самосе

Время (UTC), дата Ветер
(напр.,м/с)
 
Видим.   Явления Облачность Т
(С)
Тd
(С)
f
(%)
Тe
(С)
Тes
(С)
Комфортность P
(гПа)
Po
(гПа)
Тmin
(С)
Tmax
(С)
R
(мм)
R24
(мм)
S
(см)
15 14.07 СВ 3
{10}
10 км в посл. час гроза 9/6 600 м
[Cu Sc Ac As]
+26.0 +19.9 69 +32 +32 очень
душно
1004.9 1003.5
18 14.07 С 5
{7}
10 км 5/1 600 м
[Cu med, cong Ac und]
+22.4 +17.6 74 +27 +27 душно 1005.3 1003.9 +29.6 4
03 15.07 С 4
{6}
10 км 3/3 600 м
[Cu med, cong]
+19.0 +11.8 63 +20 +20 1006.2 1004.9
06 15.07 С 6
{9}
10 км 3/3 600 м
[Cu med, cong]
+22.2 +15.2 65 +26 +28 душно 1007.4 1006.0 +19.0 230
09 15.07 С 5
{9}
10 км 3/3 600 м
[Cu med, cong]
+24.4 +15.1 56 +27 +34 жарко 1008.6 1007.3
12 15.07 С 5
{9}
10 км 3/1 600 м
[Cu med, cong Ac lent Ci fib]
+28.6 +14.5 42 +31 +38 жарко 1007.5 1006.2
15 15.07 С 4
{9}
10 км 5/1 750 м
[Cu med, cong Ac trans Ci fib]
+29.0 +12.9 37 +30 +33 жарко 1007.1 1005.8
18 15.07 ЮВ 2
{6}
10 км 5/1 750 м
[Cu med, cong Ac trans Ci fib]
+25.4 +11.9 43 +27 +27 жарко 1007.1 1005.8 +29.4
03 16.07 СВ 3
{7}
10 км ясно +22.8 +12.8 53 +26 +26 жарко 1006.7 1005.4
06 16.07 СВ 4
{7}
10 км ясно +24.6 +13.0 48 +27 +31 жарко 1006.2 1004.9 +22.8 260
09 16.07 С 3
{7}
10 км 3/0
[Ci fib]
+29.0 +14.6 41 +31 +47 жарко 1005.5 1004.2
12 16.07 ЮВ 3
{6}
10 км 5/1 900 м
[Cu hum Ac trans Ci fib]
+29.2 +18.0 51 +34 +44 очень
душно
1004.7 1003.4
15 16.07 ЮВ 4
{5}
10 км 5/1 900 м
[Cu hum Ac trans Ci fib]
+29.0 +18.1 52 +34 +36 очень
душно
1003.6 1002.3
18 16.07 штиль 0
{4}
10 км 4/1 900 м
[Cu hum Ac trans Ci fib]
+27.2 +19.6 63 +33 +33 очень
душно
1003.8 1002.5 +29.6
03 17.07 штиль 0
{3}
10 км 6/3 540 м
[Cu hum Ac trans Ci fib]
+22.0 +17.2 74 +26 +26 душно 1002.2 1000.9
06 17.07 штиль 0
{3}
10 км 6/4 1200 м
[Cu hum Ac trans Ci fib]
+24.2 +17.9 68 +28 +33 душно 1002.3 1001.0 +22.0 260
09 17.07 С 5
{9}
10 км 6/3 1050 м
[Cu hum Ac und]
+26.4 +17.2 57 +30 +35 душно 1002.5 1001.1
12 17.07 С 5
{6}
10 км 8/4 900 м
[Cu hum Ac und]
+26.4 +18.6 62 +31 +34 душно 1002.7 1001.4
15 17.07 С 6
{7}
10 км 3/3 600 м
[Cu med, cong]
+26.4 +18.6 62 +31 +33 душно 1002.3 1001.0
18 17.07 С 4
{5}
10 км 4/4 600 м
[Cu med, cong]
+25.0 +18.8 68 +30 +30 душно 1003.4 1002.0 +27.2
03 18.07 С 5
{6}
10 км ясно +22.6 +15.3 63 +26 +26 жарко 1005.6 1004.3
06 18.07 С 6
{7}
10 км ясно +26.0 +15.2 51 +29 +31 душно 1006.9 1005.5 +22.6 270
09 18.07 С 6
{10}
10 км ясно +29.2 +16.1 45 +32 +41 душно 1008.2 1006.9
12 18.07 С 5
{9}
10 км ясно +28.8 +14.3 41 +31 +40 жарко 1008.0 1006.7
15 18.07 С 5
{8}
10 км ясно +28.4 +13.4 40 +30 +33 жарко 1007.3 1005.9
18 18.07 С 6
{8}
10 км ясно +25.0 +10.8 41 +26 +26 жарко 1008.3 1007.0 +29.4
03 19.07 штиль 0
{5}
10 км 4/1 750 м
[Cu med, cong Ac trans]
+23.0 +16.5 67 +28 +28 душно 1010.6 1009.3
06 19.07 С 4
{8}
10 км 4/1 750 м
[Cu med, cong Ci fib]
+24.4 +13.1 49 +26 +31 жарко 1010.2 1008.9 +23.0 270
09 19.07 С 6
{9}
10 км 1/1 600 м
[Cu med, cong]
+26.6 +15.1 49 +29 +37 жарко 1011.3 1009.9
12 19.07 Ю 5
{6}
10 км 1/1 600 м
[Cu med, cong]
+28.4 +17.8 53 +33 +41 очень
душно
1010.6 1009.3
15 19.07 Ю 4
{5}
10 км 1/1 600 м
[Cu med, cong]
+28.4 +18.5 55 +33 +36 очень
душно
1009.8 1008.5
18 19.07 штиль 0
{4}
10 км 1/1 1000 м
[Cu med, cong]
+26.4 +19.0 64 +32 +32 очень
душно
1010.6 1009.3 +28.8
03 20.07 штиль 0
{3}
10 км ясно +23.4 +18.7 75 +30 +30 очень
душно
1011.3 1009.9
06 20.07 С 5
{6}
10 км ясно +25.0 +17.0 61 +29 +32 душно 1011.6 1010.3 +23.4 270
09 20.07 С 5
{11}
10 км ясно +29.4 +16.7 46 +33 +42 душно 1011.9 1010.6
12 20.07 Ю 4
{10}
10 км ясно +31.2 +17.9 45 +35 +47 очень
душно
1011.9 1010.6
15 20.07 С 6
{10}
10 км ясно +32.4 +17.1 40 +36 +37 очень
душно
1011.3 1009.9
18 20.07 С 5
{11}
10 км ясно +29.0 +18.1 52 +34 +34 очень
душно
1011.6 1010.3 +32.4
03 21.07 СВ 5
{8}
10 км ясно +26.4 +18.3 61 +31 +31 душно 1012.5 1011.1
06 21.07 С 7
{10}
10 км ясно +28.4 +17.8 53 +33 +35 очень
душно
1012.2 1010.9 +26.4 265
09 21.07 С 7
{11}
10 км ясно +30.2 +17.8 47 +34 +40 очень
душно
1012.5 1011.1
12 21.07 С 7
{10}
10 км ясно +33.2 +17.4 39 +37 +41 очень
душно
1011.4 1010.0

 

Местоположение метеостанции Самос (Греция): широта 37.70 долгота 26.92 высота над уровнем моря 7 м.

В архиве по умолчанию представлена погода на Самосе за последнюю неделю. Архивные данные за месяц целиком и за предыдущие месяцы, начиная с января 2011 года, Вы можете получить, выбрав интересующий диапазон дат из раскрывающегося списка и нажав кнопку "Ввод!".


*Определитесь, кто Вы:
робот инопланетянин человек

Внимание! Время в таблицах - всемирное. Для получения местного времени необходимо прибавить поправку, которая равна 2 ч.

Смотрите также архив погоды в соседних городах и на ближайших метеорологических станциях:

Погода в Кушадасы (Турция) (35 км)
Погода в Икарии (Греция) (51 км)
Погода в Измир аэропорту (Турция) (67 км)
Погода в Леросе (Греция) (77 км)
Погода в Калимносе (Греция) (82 км)
Погода в Айдыне (Турция) (83 км)
Погода в Измире (Турция) (84 км)
Погода в Аэропорту Милас-Бодрум (Турция) (84 км)
Погода в Чешме (Турция) (86 км)
Погода в Бодруме (Турция) (87 км)

Пояснения к столбцам:

Ветер - указаны скорость ветра в м/с - средняя за 10 мин, порывы в срок и между сроками (в фигурных скобках) и направление, откуда дует ветер: С - северный, СВ - северо-восточный, В - восточный, ЮВ - юго-восточный, Ю - южный, ЮЗ - юго-западный, З - западный, СЗ - северо-западный.
Видимость - горизонтальная дальность видимости в метрах или километрах. При видимости от 1 до 10 км при отсутствии осадков обычно наблюдается дымка, при ухудшении видимости до 1 км и менее - туман. В сухую погоду видимость может ухудшаться дымом, пылью или мглою.
Явления - указаны атмосферные явления, наблюдавшиеся в срок или в последний час перед сроком; фигурными скобками обозначены явления, наблюдавшиеся между сроками (за 1-3 часа до срока); квадратными скобками обозначены град или гололедные отложения с указанием их диаметра в мм.
Облачность - указаны через наклонную черту общая и нижняя облачность в баллах и высота нижней границы облаков в метрах; квадратными скобками обозначены формы облаков: Ci - перистые, Cs - перисто-слоистые, Cc - перисто-кучевые, Ac - высококучевые, As - высокослоистые, Sc - слоисто-кучевые, Ns - слоисто-дождевые, Cu - кучевые, Cb - кучево-дождевые. Подробнее классификацию облаков см. в Атласе облаков (PDF).
T - Температура воздуха - температура, измеренная на высоте 2 м над землей.
Td - Температура точки росы - температура, при понижении до которой содержащийся в воздухе водяной пар достигнет насыщения.
f - Относительная влажность воздуха - влажноcть воздуха, измеренная на высоте 2 м над землей.
Te - Эффективная температура - температура, которую ощущает одетый по сезону человек в тени. Характеристика душности погоды. При расчете учитывается влияние влажности воздуха и скорости ветра на теплоощущения человека.
Tes - Эффективная температура на солнце - температура, которую ощущает человек, с поправкой на солнечный нагрев. Характеристика знойности погоды. Зависит от высоты солнца над горизонтом, облачности и скорости ветра. Ночью, в пасмурную погоду, а также при ветре 12 м/с и более поправка равна нулю.
P - Атмосферное давление - приведенное к уровню моря атмосферное давление.
Po - Атмосферное давление - измеренное на уровне метеостанции атмосферное давление.
Tmin - Минимальная температура - минимум температуры воздуха на высоте 2 м над землей.
Tmax - Максимальная температура - максимум температуры воздуха на высоте 2 м над землей.
R - Количество осадков - Количество выпавших осадков за период времени, мм. При наведении курсора мыши на число - период времени, за который выпало указанное количество осадков.
R24 - Количество осадков - Количество выпавших осадков за 24 часа, мм.
S - Снежный покров - Высота снежного покрова, см. При наведении курсора мыши на число - состояние снежного покрова и степень покрытия местности в баллах.